Weather History for Spirit of St Louis, MO

Change the Weather History Date:

Monday, November 21, 2011

  Actual Average Record
Temperature  
Mean Temperature 44 °F -  
Max Temperature 46 °F 51 °F 68 °F (2003)
Min Temperature 42 °F 31 °F 12 °F (2000)
Degree Days  
Heating Degree Days 21    
Moisture  
Dew Point 43 °F    
Average Humidity 94    
Maximum Humidity 100    
Minimum Humidity 83    
Precipitation  
Precipitation 0.00 in - - ()
Sea Level Pressure  
Sea Level Pressure 30.17 in    
Wind  
Wind Speed 4 mph (NE)    
Max Wind Speed 8 mph    
Max Gust Speed -    
Visibility 2 miles    
Events      
Averages and records for this station are not official NWS values.
T = Trace of Precipitation, MM = Missing Value Source: NWS Daily Summary

Daily Weather History Graph

Daily Weather History Graph

Search for Another Location

Airport:

Trip Planner

Search our weather history database for the weather conditions in past years. The results will help you decide how hot, cold, wet, or windy it might be!

Date:

Astronomy

Nov. 21, 2011 Rise Set
Actual Time 6:51 AM CST 4:45 PM CST
Civil Twilight 6:22 AM CST 5:14 PM CST
Nautical Twilight 5:49 AM CST 5:46 PM CST
Astronomical Twilight 5:18 AM CST 6:18 PM CST
Moon 2:31 AM CST (11/21) 2:06 PM CST (11/21)
Length of Visible Light 10h 52m
Length of Day
9h 54m
Waning Crescent, 17% of the Moon is Illuminated
Nov 21
Waning Crescent
Nov 25
New
Dec 2
First Quarter
Dec 10
Full
Dec 17
Last Quarter

Hourly Weather History & Observations

Time (CST) Temp. Windchill Dew Point Humidity Pressure Visibility Wind Dir Wind Speed Gust Speed Precip Events Conditions
12:03 AM 42.8 °F - 41.0 °F 93% 30.21 in 1.8 mi Calm Calm - N/A   Overcast
12:41 AM 42.8 °F 41.1 °F 41.0 °F 93% 30.19 in 1.8 mi NNE 3.5 mph - N/A   Overcast
12:54 AM 43.0 °F - 42.1 °F 97% 30.21 in 1.8 mi Calm Calm - N/A   Overcast
1:12 AM 42.8 °F 41.1 °F 41.0 °F 93% 30.18 in 2.0 mi North 3.5 mph - N/A   Overcast
1:22 AM 42.8 °F 41.1 °F 42.8 °F 100% 30.17 in 1.5 mi NNE 3.5 mph - N/A   Overcast
1:54 AM 43.0 °F 38.8 °F 42.1 °F 97% 30.17 in 1.8 mi NE 6.9 mph - N/A   Overcast
2:01 AM 42.8 °F 40.1 °F 42.8 °F 100% 30.16 in 2.0 mi NE 4.6 mph - N/A   Overcast
2:21 AM 42.8 °F 39.3 °F 42.8 °F 100% 30.17 in 2.5 mi NE 5.8 mph - N/A   Overcast
2:54 AM 43.0 °F 39.5 °F 42.1 °F 97% 30.17 in 2.5 mi NE 5.8 mph - N/A   Overcast
3:54 AM 44.1 °F 42.5 °F 43.0 °F 96% 30.19 in 2.0 mi NE 3.5 mph - N/A   Overcast
4:36 AM 44.6 °F 43.1 °F 42.8 °F 93% 30.19 in 1.8 mi ENE 3.5 mph - N/A   Overcast
4:50 AM 44.6 °F 42.2 °F 42.8 °F 93% 30.19 in 1.5 mi NE 4.6 mph - N/A   Overcast
4:54 AM 44.1 °F 41.5 °F 43.0 °F 96% 30.20 in 1.5 mi NE 4.6 mph - N/A   Overcast
5:24 AM 44.6 °F 41.4 °F 42.8 °F 93% 30.19 in 2.0 mi North 5.8 mph - N/A   Overcast
5:42 AM 44.6 °F 40.7 °F 42.8 °F 93% 30.19 in 2.0 mi North 6.9 mph - N/A   Overcast
5:54 AM 43.0 °F 38.2 °F 42.1 °F 97% 30.20 in 2.5 mi North 8.1 mph - N/A   Overcast
6:08 AM 42.8 °F 39.3 °F 42.8 °F 100% 30.19 in 2.5 mi NNE 5.8 mph - N/A   Overcast
6:18 AM 42.8 °F 39.3 °F 42.8 °F 100% 30.19 in 3.0 mi NNE 5.8 mph - N/A   Overcast
6:54 AM 43.0 °F 39.5 °F 42.1 °F 97% 30.21 in 4.0 mi NE 5.8 mph - N/A   Overcast
7:12 AM 42.8 °F 40.1 °F 42.8 °F 100% 30.20 in 2.0 mi ENE 4.6 mph - N/A   Overcast
7:54 AM 44.1 °F 41.5 °F 42.1 °F 93% 30.23 in 2.0 mi ENE 4.6 mph - N/A   Overcast
8:01 AM 44.6 °F 41.4 °F 42.8 °F 93% 30.22 in 3.0 mi ENE 5.8 mph - N/A   Overcast
8:54 AM 44.1 °F 42.5 °F 42.1 °F 93% 30.23 in 3.0 mi NE 3.5 mph - N/A   Overcast
9:54 AM 45.0 °F - 43.0 °F 93% 30.23 in 3.0 mi Calm Calm - N/A   Overcast
10:54 AM 45.0 °F - 43.0 °F 93% 30.22 in 3.0 mi Calm Calm - N/A   Overcast
11:54 AM 46.0 °F 43.9 °F 42.1 °F 86% 30.19 in 3.0 mi NNE 4.6 mph - N/A   Overcast
12:49 PM 46.4 °F 44.3 °F 42.8 °F 87% 30.16 in 6.0 mi NNE 4.6 mph - N/A   Haze
12:54 PM 46.9 °F - 42.1 °F 83% 30.17 in 4.0 mi NNE 4.6 mph - N/A   Haze
1:54 PM 46.0 °F 43.1 °F 42.1 °F 86% 30.16 in 4.0 mi North 5.8 mph - N/A   Overcast
2:54 PM 46.9 °F - 42.1 °F 83% 30.13 in 4.0 mi NE 5.8 mph - N/A   Haze
3:54 PM 46.0 °F 43.9 °F 43.0 °F 89% 30.14 in 4.0 mi ENE 4.6 mph - N/A   Overcast
4:00 PM 46.4 °F 43.5 °F 42.8 °F 87% 30.14 in 4.0 mi ENE 5.8 mph - N/A   Overcast
4:54 PM 45.0 °F 41.8 °F 43.0 °F 93% 30.14 in 3.0 mi ENE 5.8 mph - N/A   Overcast
5:54 PM 44.6 °F 41.4 °F 42.8 °F 93% 30.11 in 2.0 mi NE 5.8 mph - N/A   Overcast
6:54 PM 45.0 °F 41.8 °F 44.1 °F 97% 30.12 in 2.0 mi NE 5.8 mph - N/A   Overcast
7:54 PM 45.0 °F - 44.1 °F 97% 30.14 in 2.0 mi Calm Calm - N/A   Overcast
8:23 PM 44.6 °F 41.4 °F 44.6 °F 100% 30.11 in 1.8 mi NE 5.8 mph - N/A   Overcast
8:54 PM 45.0 °F 42.6 °F 44.1 °F 97% 30.11 in 1.8 mi NE 4.6 mph - N/A   Overcast
9:54 PM 45.0 °F 43.5 °F 44.1 °F 97% 30.10 in 1.8 mi ENE 3.5 mph - N/A   Overcast
10:54 PM 45.0 °F 43.5 °F 44.1 °F 97% 30.10 in 2.0 mi NE 3.5 mph - N/A   Overcast
11:54 PM 44.6 °F 43.1 °F 44.6 °F 100% 30.06 in 1.8 mi ENE 3.5 mph - N/A   Overcast